COSMOS 1275 DEB, 12722

Orbit data source: Space-Track

COSMOS 1275 DEB, 12722 is space debris in LEO originally from a launch on Thu, 04 Jun 1981 UTC launched from the Plesetsk Missile And Space Complex (PKMTR). Debris objects in space refer to the collection of defunct objects orbiting the Earth. Examples of debris include non-operational satellites, rocket bodies, and fragments generated from explosions, collisions, or faulty payload assembly.

Loading next visibility...
Identifier
12722, 1981-053BP
Orbit
LEO
Country
Flag of CISCIS
Related business
Manufacturer
Unknown
Mission
Spacecraft
Bus & Motor
Unknown
Mass
Unknown
Launch date (UTC)
1981-06-04 (45 years ago)
Launch vehicle
Unknown
Launch site
Plesetsk Missile And Space Complex (PKMTR)
Object type
Payload
Rocket body
Debris
Shape & HBR
Unknown shape, 0.1 m
Radar Cross Section
Small (<0.1 m²)

Expand to show TLE details & history
Last TLE update: 11 hours ago

TLE from 11 hours ago
0 COSMOS 1275 DEB
1 12722U 81053BP  26034.41942359  .00001072  00000-0  85267-3 0  9994
2 12722  82.9028 174.8506 0065374 236.4050 123.0863 13.89381318240296
Epoch: 2026-02-03T10:03Z
TLE epoch observation values (Epoch: 2026-02-03T10:03:58.198Z)
Latitude
-0.00007°
Longitude
-109.74253°
Altitude
960.026 km
Speed
7.358 km/s
True Right ascension
11h 39m 24s
True Declination
0° 00' 00"
Sunlit
Object was in full shadow at epoch
Visualization orbit readout
Latitude
Unknown
Longitude
Unknown
Altitude
Unknown
Speed
Unknown
Apparent Right ascension
Unknown
Apparent Declination
Unknown
Sunlit
N/A
Visualization observer readout
Local Sidereal Time
22:37:24
Azimuth
Unknown
Elevation
Unknown
Doppler factor
Unknown
Orbital elements
Apogee altitude
975.693 km
Perigee altitude
880.167 km
Semi-major axis
7,306.067 km
Eccentricity
0.00654
Inclination
82.9028°
RAAN
174.8506°
Arg. of periapsis
236.405°
True anomaly
123.71116°
Mean anomaly
123.0863°
Eccentric anomaly
123.39901°
Mean motion
3.4755 °/min
Orbital period
103.58 mins
BSTAR
0.00085267
Loading maneuver chart data...
Computing Atmospheric mass density...

Documentation

Showing up to 5 results
|